Regional Weather Roundup
Issued by NWS

Home | Current Version | Previous Version | Graphics & Text | Print | Product List | Glossary On
Versions: 1 2 3 4 5 6 7 8 9 10 11 12 13 14 15 16 17 18 19 20 21 22 23 24 25 26 27 28 29 30 31 32 33 34 35 36 37 38 39 40 41 42 43 44 45 46 47 48 49 50
000
ASUS43 KLOT 170903
RWRIL

ILLINOIS REGIONAL WEATHER ROUNDUP
NATIONAL WEATHER SERVICE CHICAGO/ROMEOVILLE IL
300 AM CST SAT FEB 17 2018

NOTE: "FAIR" INDICATES FEW OR NO CLOUDS BELOW 12,000 FEET WITH NO
SIGNIFICANT WEATHER AND/OR OBSTRUCTIONS TO VISIBILITY.

* THESE STATIONS ARE NOT UNDER NWS QUALITY CONTROL. THEY ALSO MAY NOT
  REPORT WEATHER SUCH AS PRECIPITATION OR FOG.

ILZ001-002-007-009-015-016-024-171000-
NORTHWEST ILLINOIS

CITY           SKY/WX    TMP DP  RH WIND       PRES   REMARKS
MOLINE         FAIR      13   7  77 E5        30.15F WCI   5
STERLING*        N/A    N/A N/A N/A MISG        N/A
SAVANNA*       FAIR      11   5  75 CALM      30.16F
$$

ILZ003-004-008-010-011-017-018-171000-
NORTH CENTRAL ILLINOIS

CITY           SKY/WX    TMP DP  RH WIND       PRES   REMARKS
ROCKFORD       FAIR      11   4  73 S6        30.17F WCI   1
FREEPORT*      FAIR      14   7  73 S8        30.16F WCI   3
ROCHELLE*      FAIR       6   1  82 SE8       30.18F WCI  -7
DE KALB*       FAIR       9   4  81 S6        30.17F WCI  -1
PERU*          FAIR      12   8  83 SE5       30.19F WCI   4
$$

ILZ005-006-012>014-019>023-171000-
NORTHEAST ILLINOIS

CITY           SKY/WX    TMP DP  RH WIND       PRES   REMARKS
CHICAGO-OHARE  FAIR      17   9  70 SW6       30.18F WCI   9
CHICAGO-MIDWAY FAIR      17  10  74 S3        30.20F
AURORA         FAIR       6   3  87 CALM      30.19F
LANSING*       FAIR      12  11  95 CALM      30.21F
JOLIET*        FAIR      10   7  90 CALM      30.20F
WAUKEGAN       FAIR      15   8  73 SW3       30.17F
DUPAGE AIRPORT FAIR      11   8  88 S3        30.18F
KANKAKEE*      FAIR      19  16  86 CALM      30.22F
WHEELING       FAIR      17   9  70 S5        30.20F WCI  10
MORRIS*        FAIR       6   2  86 CALM      30.20F
ROMEOVILLE*    FAIR      12   8  83 CALM      30.20F
NORTHERLY ISL    N/A     20  10  65 SW5         N/A  WCI  14
$$

LMZ740>746-171000-
SOUTHERN LAKE MICHIGAN

STATION/POSITION SKY/WX   TEMP    WIND        PRES    VSBY  WAVE
                          AIR SEA DIR/SP/G                  HT/PER
                          (F)     (DEG/KT/KT) (MB)    (MI)  (FT/S)
HARRISON CRIB              23     260/  5/  5   N/A
BURNHAM HARBOR             20     200/  4/ 10   N/A
CALUMET HARBOR             18     210/  3/  5 1022.6F
BURNS HARBOR               19     210/  5/  7 1023.7F
MICHIGAN CITY              19     180/  6/  7   N/A
$$

ILZ025>027-034>036-040-047-049-050-058-095>099-171000-
WEST-CENTRAL ILLINOIS

CITY           SKY/WX    TMP DP  RH WIND       PRES   REMARKS
QUINCY         CLOUDY    24  16  71 SE6       30.15F WCI  17
GALESBURG*     FAIR      19  13  77 SE5       30.17F WCI  12
MACOMB*        CLOUDY    22  17  82 SE9       30.19F WCI  12
JACKSONVILLE*  CLOUDY    22  18  83 E5        30.18F WCI  16
PITTSFIELD*    CLOUDY    24  18  78 SE3       30.18F
$$

ILZ028>032-037-038-041>044-048-051>054-059>061-171000-
CENTRAL ILLINOIS

CITY           SKY/WX    TMP DP  RH WIND       PRES   REMARKS
PONTIAC        FAIR      20  20  98 SE3       30.21F
BLOOMINGTON    FAIR      20  16  84 SE7       30.19F WCI  11
DECATUR        FAIR      22  18  85 E6        30.20F WCI  14
PEORIA         FAIR      21  13  71 SE5       30.19F WCI  15
LACON*         FAIR      12   9  90 CALM      30.18F
LINCOLN*       FAIR      23  21  91 CALM      30.20F
SPRINGFIELD    FAIR      23  16  74 SE6       30.19F WCI  16
TAYLORVILLE    FAIR      24  19  81 SE6       30.20F WCI  17
$$

ILZ033-039-045-046-055>057-062-063-171000-
EAST-CENTRAL ILLINOIS

CITY           SKY/WX    TMP DP  RH WIND       PRES   REMARKS
CHAMPAIGN      FAIR      22  20  92 E6        30.21F WCI  14
DANVILLE*      FAIR      23  22  96 CALM      30.20F
RANTOUL*       FAIR      24  22  91 E5        30.21F WCI  18
MATTOON        FAIR      24  21  88 CALM      30.20F FOG
PARIS*         FAIR      24  23  97 CALM      30.23F
$$

ILZ079-100>102-171000-
SOUTHWEST ILLINOIS

CITY           SKY/WX    TMP DP  RH WIND       PRES   REMARKS
ALTON          PTCLDY    26  23  87 E5        30.19F WCI  20
BELLEVILLE     PTCLDY    29  24  82 CALM      30.18F
CAHOKIA*       CLOUDY    29  24  82 CALM      30.19F
SPARTA*        MOCLDY    31  31 100 CALM      30.20F
$$

ILZ064>066-069>071-074>076-080>082-084>086-088>090-092>094-171000-
SOUTH-CENTRAL ILLINOIS

CITY           SKY/WX    TMP DP  RH WIND       PRES   REMARKS
CARBONDALE     FAIR      32  31  96 E3        30.20F
CAIRO*         FAIR      36  32  87 E6        30.19F WCI  31
EFFINGHAM*     FAIR      27  27 100 CALM      30.22F
MARION         FAIR      33  32  97 CALM      30.21F
MT. VERNON     FAIR      29  28  96 CALM      30.20F
CENTRALIA*     PTCLDY    30  29  96 CALM      30.19F
SALEM*         FAIR      31  26  81 NE3       30.20F
METROPOLIS*    FAIR      35  31  84 CALM      30.19F
$$

ILZ067-068-072-073-078-083-087-091-171000-
SOUTHEAST ILLINOIS

CITY           SKY/WX    TMP DP  RH WIND       PRES   REMARKS
LAWRENCEVILLE  FAIR      31  28  89 NE3       30.23F
FLORA*         FAIR      31  27  87 E3        30.21F
FAIRFIELD*     FAIR      31  28  90 CALM      30.19F
HARRISBURG*    FAIR      34  31  88 CALM      30.22S
ROBINSON*      FAIR      26  25  99 CALM      30.24F
CARMI*         FAIR      32  30  92 NE5       30.20F WCI  28
$$

ABBREVIATIONS USED IN REMARKS
   TC - TEMPERATURE IN CELSIUS
  WCI - WIND CHILL INDEX
   HX - HEAT INDEX
  VSB - VISIBILITY
$$





USA.gov is the U.S. government's official web portal to all federal, state and local government web resources and services.